This demonstration page uses our WeatherBlox Daily Observations layout. Learn more.

Left ArrowRight Arrow

31.84235, -102.49876

Hourly Observations for September 14, 2018

Temp ( °F °C ) Dew Point ( °F °C ) Humidity (%) Winds ( mph kmh ) Pressure ( in mb ) Visibility ( mi km ) Precip ( " mm )
12:53 am 00:53 Clear 73 22.8 64 17.8 74 74 SSE 13 20 29.95 1014 10 16 0.00 0.00
1:53 am 01:53 Clear 72 22.2 65 18.3 79 79 SSE 12 19 29.94 1014 10 16 0.00 0.00
2:53 am 02:53 Clear 71 21.7 65 18.3 81 81 SSE 8 13 29.93 1014 10 16 0.00 0.00
3:53 am 03:53 Clear 70 21.1 65 18.3 84 84 SSE 8 13 29.93 1013 10 16 0.00 0.00
4:53 am 04:53 Clear 68 20 65 18.3 90 90 SSE 5 7 29.93 1014 10 16 0.00 0.00
5:53 am 05:53 Clear 67 19.4 64 17.8 91 91 SSE 6 9 29.93 1014 10 16 0.00 0.00
6:53 am 06:53 Clear 67 19.4 65 18.3 93 93 SSE 6 9 29.94 1014 10 16 0.00 0.00
7:53 am 07:53 Sunny 67 19.4 65 18.3 93 93 ESE 6 9 29.97 1015 10 16 0.00 0.00
8:53 am 08:53 Sunny 71 21.7 66 18.9 84 84 SSE 7 11 29.98 1015 10 16 0.00 0.00
9:53 am 09:53 Mostly Sunny 75 23.9 67 19.4 76 76 S 7 11 29.99 1016 10 16 0.00 0.00
10:39 am 10:39 Mostly Cloudy 75 23.9 66 18.9 74 74 SSE 9 15 29.94 1014 10 16 0.00 0.00
10:53 am 10:53 Mostly Cloudy 76 24.4 66 18.9 72 72 S 8 13 30.00 1016 10 16 0.00 0.00
11:12 am 11:12 Partly Cloudy 76 24.4 66 18.9 72 72 S 8 13 29.94 1014 10 16 0.00 0.00
11:19 am 11:19 Mostly Cloudy 76 24.4 66 18.9 72 72 SSE 7 11 29.94 1014 10 16 0.00 0.00
11:28 am 11:28 Mostly Sunny 78 25.6 66 18.9 67 67 S 6 9 29.91 1013 10 16 0.00 0.00
11:53 am 11:53 Partly Cloudy 78 25.6 66 18.9 67 67 SSE 8 13 30.00 1016 10 16 0.00 0.00
12:53 pm 12:53 Mostly Cloudy 81 27.2 65 18.3 58 58 SE 9 15 29.98 1015 10 16 0.00 0.00
1:53 pm 13:53 Partly Cloudy 78 25.6 64 17.8 62 62 E 7 11 29.98 1015 10 16 0.00 0.00
2:53 pm 14:53 Sunny 84 28.9 63 17.2 49 49 SE 8 13 29.94 1014 10 16 0.00 0.00
3:53 pm 15:53 Mostly Sunny 85 29.4 61 16.1 45 45 SE 8 13 29.92 1013 10 16 0.00 0.00
4:53 pm 16:53 Sunny 85 29.4 63 17.2 48 48 E 12 19 29.91 1013 10 16 0.00 0.00
5:53 pm 17:53 Mostly Sunny 84 28.9 62 16.7 48 48 ESE 9 15 29.91 1013 10 16 0.00 0.00
6:53 pm 18:53 Sunny 83 28.3 60 15.6 46 46 E 8 13 29.91 1013 10 16 0.00 0.00
7:53 pm 19:53 Sunny 80 26.7 62 16.7 54 54 E 8 13 29.92 1013 10 16 0.00 0.00
8:53 pm 20:53 Clear 78 25.6 64 17.8 62 62 E 10 17 29.93 1014 10 16 0.00 0.00
9:53 pm 21:53 Clear 76 24.4 63 17.2 64 64 ESE 9 15 29.96 1014 10 16 0.00 0.00
10:53 pm 22:53 Clear 75 23.9 64 17.8 69 69 ESE 9 15 29.96 1015 10 16 0.00 0.00
11:53 pm 23:53 Clear 74 23.3 64 17.8 71 71 SE 8 13 29.96 1015 10 16 0.00 0.00

Powered by AerisWeather